Regional Weather Roundup
Issued by NWS

Home | Current Version | Previous Version | Graphics & Text | Print | Product List | Glossary On
Versions: 1 2 3 4 5 6 7 8 9 10 11 12 13 14 15 16 17 18 19 20 21 22 23 24 25 26 27 28 29 30 31 32 33 34 35 36 37 38 39 40 41 42 43 44 45 46 47 48 49 50
000
ASUS45 KCYS 060710
RWRWY

WYOMING REGIONAL WEATHER ROUNDUP
NATIONAL WEATHER SERVICE CHEYENNE WY
100 AM MDT WED MAY 06 2015

NOTE:  "FAIR" INDICATES FEW OR NO CLOUDS BELOW 12,000 FEET
WITH NO SIGNIFICANT WEATHER AND/OR OBSTRUCTIONS TO VISIBILITY.

WYZ001-060800-
YELLOWSTONE NATIONAL PARK

CITY           SKY/WX    TMP DP  RH WIND       PRES   REMARKS
LK YELLOWSTONE   N/A     34  30  85 NW3       29.91F
W YELLOWSTONE  NOT AVBL

$$
WYZ002>013-054>058-071-098>099-060800-
NORTHERN WYOMING

CITY           SKY/WX    TMP DP  RH WIND       PRES   REMARKS
JACKSON        FAIR      45  41  87 CALM      29.85F
CODY           CLOUDY    52  48  87 N7        29.78S
GREYBULL       MOCLDY    60  43  53 NW24G35   29.69S
WORLAND        LGT RAIN  59  44  57 N10       29.72R
SHERIDAN       MOCLDY    55  43  63 VRB3      29.70S
BUFFALO        FAIR      51  46  83 SE9       29.76R
GILLETTE       FAIR      53  47  79 SE21G28   29.73F
HULETT         FAIR      55  46  71 S8        29.78S
NEWCASTLE      FAIR      52  46  82 SE15G21   29.80F

$$
WYZ014>020-022>026-101>103-060800-
CENTRAL WYOMING

CITY           SKY/WX    TMP DP  RH WIND       PRES   REMARKS
BIG PINEY      CLOUDY    47  41  80 NW7       29.86F
PINEDALE       CLOUDY    45  41  87 W7        29.87S
DUBOIS         PTSUNNY   43  37  81 NW12      29.86S
LANDER         CLOUDY    53  43  68 SE6       29.73F
RIVERTON       CLOUDY    55  42  61 NW17      29.75S
CASPER         CLOUDY    48  45  89 N6        29.75S
DOUGLAS        FAIR      50  48  93 SE12      29.77F

$$
WYZ021-027>030-104>119-060800-
SOUTHERN WYOMING

CITY           SKY/WX    TMP DP  RH WIND       PRES   REMARKS
EVANSTON       LGT RAIN  44  43  96 SW9       29.90S
KEMMERER       CLOUDY    43  41  93 W8        29.89S
FORT BRIDGER   DRIZZLE   46  46 100 W13       29.91S
ROCK SPRINGS   CLOUDY    47  41  80 SW13      29.83F
DIXON          CLOUDY    49  45  86 CALM      29.84S
RAWLINS        FAIR      42  38  85 N5        29.80S
SARATOGA       FAIR      45  41  87 SW8       29.81F
LARAMIE        FAIR      41  38  89 SE7       29.80F
CHEYENNE       LGT RAIN  47  46  97 N6        29.77F FOG
TORRINGTON     LGT RAIN  51  50  96 E12       29.75F
PINE BLUFFS    RAIN      50  50 100 E13       29.75F

$$


USA.gov is the U.S. government's official web portal to all federal, state and local government web resources and services.